Weather History for KMLI - March, 2012

Change the Weather History Date:

Wednesday, March 14, 2012

  Actual Average Record
Temperature  
Mean Temperature 66 °F 38 °F  
Max Temperature 78 °F 48 °F 78 °F (2012)
Min Temperature 53 °F 29 °F -2 °F (1960)
Degree Days  
Heating Degree Days 0 27  
Month to date heating degree days 298 416  
Since 1 July heating degree days 4498 5214  
Cooling Degree Days 1 0  
Month to date cooling degree days 1 0  
Year to date cooling degree days 1 0  
Growing Degree Days 16 (Base 50)    
Moisture  
Dew Point 56 °F    
Average Humidity 69    
Maximum Humidity 83    
Minimum Humidity 54    
Precipitation  
Precipitation 0.00 in 0.10 in 1.99 in (1944)
Month to date precipitation 0.72 1.24  
Year to date precipitation 3.37 4.33  
Snow  
Snow 0.00 in 0.10 in - ()
Month to date snowfall 4.0 2.2  
Since 1 July snowfall 16.9 28.9  
Snow Depth 0.00 in    
Sea Level Pressure  
Sea Level Pressure 29.92 in    
Wind  
Wind Speed 11 mph (SSW)    
Max Wind Speed 23 mph    
Max Gust Speed 28 mph    
Visibility 10 miles    
Events      
T = Trace of Precipitation, MM = Missing Value Source: NWS Daily Summary

Daily Weather History Graph

Daily Weather History Graph

Search for Another Location

Airport or City:

Trip Planner

Search our weather history database for the weather conditions in past years. The results will help you decide how hot, cold, wet, or windy it might be!

Date:

Astronomy

Mar. 14, 2012 Rise Set
Actual Time 7:14 AM CDT 7:08 PM CDT
Civil Twilight 6:47 AM CDT 7:35 PM CDT
Nautical Twilight 6:14 AM CDT 8:07 PM CDT
Astronomical Twilight 5:42 AM CDT 8:40 PM CDT
Moon 1:48 AM CDT (3/14) 11:20 AM CDT (3/14)
Length of Visible Light 12h 48m
Length of Day
11h 53m
Waning Gibbous, 54% of the Moon is Illuminated
Mar 14
Waning Gibbous
Mar 14
Last Quarter
Mar 22
New
Mar 30
First Quarter
Apr 6
Full

Hourly Weather History & Observations

Time (CDT) Temp. Dew Point Humidity Pressure Visibility Wind Dir Wind Speed Gust Speed Precip Events Conditions
12:52 AM 57.0 °F 45.0 °F 64% 29.96 in 10.0 mi SSE 10.4 mph - N/A   Clear
1:52 AM 57.0 °F 46.9 °F 69% 29.94 in 10.0 mi SSE 8.1 mph - N/A   Clear
2:52 AM 60.8 °F 50.0 °F 68% 29.94 in 10.0 mi South 12.7 mph - N/A   Clear
3:52 AM 60.8 °F 50.0 °F 68% 29.93 in 10.0 mi South 15.0 mph 21.9 mph N/A   Clear
4:52 AM 61.0 °F 51.1 °F 70% 29.93 in 10.0 mi South 12.7 mph 19.6 mph N/A   Clear
5:52 AM 59.0 °F 50.0 °F 72% 29.94 in 10.0 mi South 4.6 mph - N/A   Clear
6:52 AM 54.0 °F 48.9 °F 83% 29.95 in 10.0 mi SSE 3.5 mph - N/A   Clear
7:52 AM 57.9 °F 51.1 °F 78% 29.96 in 10.0 mi South 8.1 mph - N/A   Clear
8:52 AM 61.0 °F 53.1 °F 75% 29.96 in 10.0 mi South 6.9 mph - N/A   Clear
9:52 AM 66.9 °F 55.9 °F 68% 29.96 in 10.0 mi SSW 10.4 mph 21.9 mph N/A   Clear
10:52 AM 71.1 °F 57.9 °F 63% 29.94 in 10.0 mi SSW 17.3 mph 23.0 mph N/A   Clear
11:52 AM 73.9 °F 59.0 °F 59% 29.92 in 10.0 mi SSW 17.3 mph 25.3 mph N/A   Clear
12:52 PM 77.0 °F 61.0 °F 58% 29.91 in 10.0 mi SSW 18.4 mph 24.2 mph N/A   Partly Cloudy
1:52 PM 75.9 °F 60.1 °F 58% 29.90 in 10.0 mi SSW 15.0 mph 24.2 mph N/A   Mostly Cloudy
2:52 PM 78.1 °F 60.1 °F 54% 29.88 in 10.0 mi SW 16.1 mph 25.3 mph N/A   Mostly Cloudy
3:52 PM 75.0 °F 60.1 °F 60% 29.87 in 10.0 mi SSW 13.8 mph 23.0 mph N/A   Mostly Cloudy
4:52 PM 75.9 °F 60.1 °F 58% 29.86 in 10.0 mi SSW 17.3 mph - N/A   Scattered Clouds
5:52 PM 75.9 °F 60.1 °F 58% 29.86 in 10.0 mi SW 13.8 mph - N/A   Partly Cloudy
6:52 PM 73.9 °F 60.1 °F 62% 29.87 in 10.0 mi SW 9.2 mph - N/A   Partly Cloudy
7:52 PM 72.0 °F 60.1 °F 66% 29.88 in 10.0 mi SSW 6.9 mph - N/A   Clear
8:52 PM 70.0 °F 59.0 °F 68% 29.90 in 10.0 mi SSW 4.6 mph - N/A   Partly Cloudy
9:52 PM 69.1 °F 59.0 °F 70% 29.91 in 10.0 mi South 5.8 mph - N/A   Mostly Cloudy
10:52 PM 69.8 °F 59.0 °F 68% 29.91 in 10.0 mi SSW 9.2 mph - N/A   Clear
11:52 PM 68.0 °F 59.0 °F 73% 29.91 in 10.0 mi SW 8.1 mph - N/A   Clear